Location: Newark
(17.9939°S, 31.0481°E)
Time: 21:26:32
(UTC+00:00)

Courier 1B - Pass Details

Date: 18 November 2019
Orbit: 963 x 1209 km, 28.3° (Epoch: 06 December)

Event Time Altitude Azimuth Distance (km) Brightness Sun altitude
Rises 18:41:14 0° 249° (WSW) 4,042 11.7 -32.2°
Reaches altitude 10° 18:44:14 10° 241° (WSW) 3,106 10.9 -32.8°
Maximum altitude 18:51:29 41° 173° (S) 1,691 8.8 -34.1°
Enters shadow 18:53:09 37° 145° (SE) 1,801 8.8 -34.4°
